STARLINK-1321, 45573

Orbit data source: Space-Track

STARLINK-1321, 45573 is a payload satellite owned by SpaceX/Seattle (US) in LEO that was launched on Wed, 22 Apr 2020 UTC via an FALCON 9 launch vehicle from the Air Force Eastern Test Range (AFETR). Payload-class satellites include a variety of spacecraft equipped with specific instruments for various scientific and technological missions. These include communications satellites like Starlink; space stations such as the ISS; scientific satellites like the Hubble; Earth observation satellites from companies like Planet Labs, Umbra, and HawkEye 360; GPS; miniature CubeSats for education and research; and military/defense satellites.

Loading next visibility...
Identifier
45573, 2020-025AU
Orbit
LEO
Country
Flag of USUS
Related business
Manufacturer
SpaceX/Seattle
Mission
Partially operational Commercial Communications
Bus & Motor
STARLINK, Unknown motor
Mass
260 kg wet, ~248 kg dry
Launch date (UTC)
2020-04-22 (6 years ago)
Launch vehicle
FALCON 9
Launch site
Air Force Eastern Test Range (AFETR)
Object type
Payload
Rocket body
Debris
Shape & HBR
Box + 1 Pan, 10.1 m
Radar Cross Section
13.562 m², Large (>1 m²)

Expand to show TLE details & history
Last TLE update: 12 hours ago

TLE from 12 hours ago
0 STARLINK-1321
1 45573U 20025AU  26123.51527489  .00095965  00000-0  12498-2 0  9998
2 45573  53.0428 154.1050 0005491   4.0066 356.0989 15.57971744333985
Epoch: 2026-05-03T12:21Z
TLE epoch observation values (Epoch: 2026-05-03T12:21:59.750Z)
Latitude
0.00004°
Longitude
107.18835°
Altitude
390.716 km
Speed
7.679 km/s
True Right ascension
10h 16m 25s
True Declination
0° 00' 00"
Sunlit
Object was in full shadow at epoch
Visualization orbit readout
Latitude
Unknown
Longitude
Unknown
Altitude
Unknown
Speed
Unknown
Apparent Right ascension
Unknown
Apparent Declination
Unknown
Sunlit
N/A
Visualization observer readout
Local Sidereal Time
08:17:45
Azimuth
Unknown
Elevation
Unknown
Doppler factor
Unknown
Orbital elements
Apogee altitude
397.525 km
Perigee altitude
390.088 km
Semi-major axis
6,771.943 km
Eccentricity
0.00055
Inclination
53.0428°
RAAN
154.105°
Arg. of periapsis
4.0066°
True anomaly
356.09462°
Mean anomaly
356.0989°
Eccentric anomaly
356.09676°
Mean motion
3.89469 °/min
Orbital period
92.43 mins
BSTAR
0.0012498
Loading maneuver chart data...
Computing Atmospheric mass density...

Documentation

Showing up to 5 results
|